Location: Newark
(47.5833°N, 8.1500°E)
Time: 17:32:43
(UTC+00:00)

Transit 2A - Pass Details

Date: 28 October 2020
Orbit: 595 x 964 km, 66.7° (Epoch: 29 November)

Event Time Altitude Azimuth Distance (km) Brightness Sun altitude
Rises 23:17:45 0° 177° (S) 3,610 - -55.9°
Reaches altitude 10° 23:20:36 10° 166° (SSE) 2,686 - -55.9°
Maximum altitude 23:25:55 29° 109° (ESE) 1,684 - -55.8°
Drops below altitude 10° 23:31:12 10° 52° (NE) 2,671 - -55.7°
Sets 23:34:01 0° 42° (NE) 3,587 - -55.6°
Exits shadow 23:34:01 - 42° (NE) 3,589 9.9 -55.6°
